{"data":{"norad_id":62292,"epoch":"2026-09-22T21:56:03.182208Z","epoch_age_seconds":103462,"freshness":"FRESH","line1":"1 62292U 24238C   26265.91392572 -.00000055  00000+0  66216-4 0  9994","line2":"2 62292  59.9153 335.2110 0025918  64.5103 295.8582 13.75217325 89332","mean_motion":13.75217325,"eccentricity":0.0025918,"inclination_deg":59.9153,"raan_deg":335.211,"arg_perigee_deg":64.5103,"mean_anomaly_deg":295.8582,"bstar":6.6216e-5,"rev_number":8933,"period_min":104.71072272159,"perigee_km":961.82625398944,"apogee_km":999.97255509603,"semimajor_km":7359.0364045427,"source":"CELESTRAK","updated_at":"2026-09-23T09:00:21.346615Z"}}